Back to catalog

SL-8 DEB *

AliveLEO
NORAD 18501·DEBRIS·🇷🇺 Russia

Launched Feb 17, 1978 from Plesetsk Cosmodrome

Loading…

Next Passes (next 24 hours)

TLE

FreshSource: Space-Track

Epoch: Sep 14, 2026, 07:21 UTC

1 18501U 78019E   26257.30647970  .00002028  00000-0  27546-3 0  9997
2 18501  74.0510 318.4399 0007500  77.9060  43.8074 14.79534672200996

Track SL-8 DEB * in real time with AllMySat

Download on the App Store